{"data":{"norad_id":62489,"intl_designator":"2025-003C","name":"STARLINK-32328","alt_names":[],"object_type":"PAYLOAD","status":"ACTIVE","operator":null,"country":"US","launch_date":"2025-01-06","launch_site_code":"AFETR","launch_vehicle":null,"mission":null,"orbit_class":"UNKNOWN","rcs_meters":null,"size_class":null,"mass_kg":null,"dimensions":null,"purposes":["comms"],"wikipedia_slug":null,"has_3d_model":false,"image_url":null,"decayed_at":null,"tle_current":{"epoch":"2026-05-25T05:25:07.037760Z","epoch_age_seconds":51707,"freshness":"FRESH","line1":"1 62489U 25003C   26145.22577590  .00013876  00000+0  51261-3 0  9996","line2":"2 62489  42.9973 217.0029 0001081 273.5672  86.5056 15.27592250 78371","mean_motion":15.2759225,"eccentricity":0.0001081,"inclination_deg":42.9973,"raan_deg":217.0029,"arg_perigee_deg":273.5672,"mean_anomaly_deg":86.5056,"bstar":0.00051261,"rev_number":7837,"period_min":94.265992773922,"perigee_km":482.27072512606,"apogee_km":483.75410562967,"semimajor_km":6861.1494153779,"source":"CELESTRAK","updated_at":"2026-05-25T13:38:19.696511Z"}}}